| time (UTC) | temp F | wind direction | speed knots | gust knots | rain 1hr in | rain 24hr in | rain mn in | humidity % | barometer mb |
| 20260507091613 | 34 | 240 | 0.0 | 0.0 | 0.00 | 0.00 | 0.00 | 99 | 1012.5 |
| 20260507091108 | 34 | 238 | 0.0 | 0.0 | 0.00 | 0.00 | 0.00 | 99 | 1012.5 |
| 20260507090604 | 35 | 236 | 0.0 | 0.0 | 0.00 | 0.00 | 0.00 | 99 | 1012.5 |
| 20260507085558 | 35 | 244 | 0.0 | 0.0 | 0.00 | 0.00 | 0.00 | 99 | 1012.5 |
| 20260507085055 | 35 | 244 | 0.0 | 0.0 | 0.00 | 0.00 | 0.00 | 99 | 1012.5 |
| 20260507084552 | 35 | 235 | 0.0 | 0.0 | 0.00 | 0.00 | 0.00 | 99 | 1012.9 |
| 20260507084049 | 35 | 238 | 0.0 | 0.0 | 0.00 | 0.00 | 0.00 | 99 | 1012.5 |
| 20260507083545 | 35 | 237 | 0.0 | 0.0 | 0.00 | 0.00 | 0.00 | 99 | 1012.5 |
| 20260507083042 | 36 | 231 | 0.0 | 0.0 | 0.00 | 0.00 | 0.00 | 99 | 1012.1 |
| 20260507082538 | 36 | 240 | 0.0 | 0.0 | 0.00 | 0.00 | 0.00 | 99 | 1012.5 |
| 20260507082035 | 36 | 235 | 0.0 | 0.0 | 0.00 | 0.00 | 0.00 | 99 | 1012.5 |
| 20260507081531 | 37 | 231 | 0.0 | 0.0 | 0.00 | 0.00 | 0.00 | 99 | 1012.1 |
| 20260507081028 | 37 | 230 | 0.0 | 0.0 | 0.00 | 0.00 | 0.00 | 99 | 1012.5 |
| 20260507080524 | 37 | 234 | 0.0 | 0.0 | 0.00 | 0.00 | 0.00 | 99 | 1012.9 |
| 20260507080021 | 37 | 236 | 0.0 | 0.0 | 0.00 | 0.00 | 0.00 | 99 | 1012.9 |
| 20260507075516 | 37 | 243 | 0.0 | 0.0 | 0.00 | 0.00 | 0.00 | 99 | 1012.9 |
| 20260507075013 | 38 | 243 | 0.0 | 0.0 | 0.00 | 0.00 | 0.00 | 99 | 1012.9 |
| 20260507074509 | 37 | 236 | 0.0 | 0.0 | 0.00 | 0.00 | 0.00 | 99 | 1012.9 |
| 20260507074008 | 38 | 237 | 0.0 | 0.0 | 0.00 | 0.00 | 0.00 | 99 | 1012.9 |
| 20260507073503 | 38 | 239 | 0.0 | 0.0 | 0.00 | 0.00 | 0.00 | 99 | 1012.5 |
| 20260507073000 | 38 | 236 | 0.0 | 0.0 | 0.00 | 0.00 | 0.00 | 99 | 1012.5 |
| 20260507072458 | 39 | 239 | 0.0 | 0.0 | 0.00 | 0.00 | 0.00 | 99 | 1012.5 |
| 20260507071955 | 39 | 234 | 0.0 | 0.0 | 0.00 | 0.00 | 0.00 | 99 | 1012.5 |
| 20260507071452 | 40 | 234 | 0.0 | 0.0 | 0.00 | 0.00 | 0.00 | 99 | 1012.9 |
| 20260507070948 | 40 | 244 | 0.0 | 0.0 | 0.00 | 0.00 | 0.00 | 99 | 1012.9 |
| 20260507070446 | 41 | 239 | 0.0 | 0.0 | 0.00 | 0.00 | 0.00 | 99 | 1012.5 |
| 20260507065942 | 41 | 239 | 0.0 | 0.0 | 0.00 | 0.00 | 0.00 | 99 | 1012.9 |
| 20260507065439 | 41 | 239 | 0.0 | 0.0 | 0.00 | 0.00 | 0.00 | 99 | 1012.9 |
| 20260507064936 | 41 | 234 | 0.0 | 0.0 | 0.00 | 0.00 | 0.00 | 99 | 1012.5 |
| 20260507064435 | 41 | 236 | 0.0 | 0.0 | 0.00 | 0.00 | 0.00 | 99 | 1012.9 |
| 20260507063932 | 42 | 239 | 0.0 | 0.0 | 0.00 | 0.00 | 0.00 | 99 | 1012.5 |
| 20260507063429 | 42 | 239 | 0.0 | 0.0 | 0.00 | 0.00 | 0.00 | 98 | 1012.5 |
| 20260507062926 | 42 | 246 | 0.0 | 0.0 | 0.00 | 0.00 | 0.00 | 98 | 1012.5 |
| 20260507062423 | 42 | 232 | 0.0 | 0.9 | 0.00 | 0.00 | 0.00 | 98 | 1012.5 |
| 20260507061921 | 42 | 231 | 0.0 | 0.0 | 0.00 | 0.00 | 0.00 | 98 | 1012.9 |
| 20260507061418 | 42 | 237 | 0.0 | 0.0 | 0.00 | 0.00 | 0.00 | 98 | 1012.9 |
| 20260507060917 | 42 | 238 | 0.0 | 0.0 | 0.00 | 0.00 | 0.00 | 97 | 1012.9 |
| 20260507060413 | 42 | 242 | 0.0 | 0.0 | 0.00 | 0.00 | 0.00 | 97 | 1012.9 |
| 20260507055910 | 42 | 236 | 0.0 | 0.0 | 0.00 | 0.00 | 0.00 | 97 | 1012.9 |
| 20260507055405 | 42 | 243 | 0.0 | 0.0 | 0.00 | 0.00 | 0.00 | 97 | 1012.9 |
| 20260507054902 | 42 | 242 | 0.0 | 0.0 | 0.00 | 0.00 | 0.00 | 97 | 1012.9 |
| 20260507054358 | 42 | 242 | 0.0 | 0.0 | 0.00 | 0.00 | 0.00 | 97 | 1012.9 |
| 20260507053855 | 42 | 242 | 0.0 | 0.0 | 0.00 | 0.00 | 0.00 | 96 | 1012.5 |
| 20260507053353 | 42 | 248 | 0.0 | 0.0 | 0.00 | 0.00 | 0.00 | 96 | 1012.9 |
| 20260507052852 | 42 | 242 | 0.0 | 0.0 | 0.00 | 0.00 | 0.00 | 96 | 1012.9 |
| 20260507052348 | 42 | 239 | 0.0 | 0.0 | 0.00 | 0.00 | 0.00 | 96 | 1013.2 |
| 20260507051846 | 42 | 242 | 0.0 | 0.0 | 0.00 | 0.00 | 0.00 | 95 | 1013.2 |
| 20260507051343 | 42 | 246 | 0.0 | 0.0 | 0.00 | 0.00 | 0.00 | 96 | 1013.2 |
| 20260507050840 | 42 | 245 | 0.0 | 0.0 | 0.00 | 0.00 | 0.00 | 95 | 1013.6 |
| 20260507050336 | 43 | 263 | 0.9 | 0.9 | 0.00 | 0.00 | 0.00 | 96 | 1013.2 |
| 20260507045833 | 42 | 243 | 0.0 | 0.0 | 0.00 | 0.00 | 0.00 | 95 | 1013.2 |
| 20260507045330 | 42 | 243 | 0.0 | 0.0 | 0.00 | 0.00 | 0.00 | 95 | 1012.9 |
| 20260507044827 | 42 | 244 | 0.0 | 0.0 | 0.00 | 0.00 | 0.00 | 95 | 1012.9 |
| 20260507044324 | 42 | 245 | 0.0 | 0.0 | 0.00 | 0.00 | 0.00 | 95 | 1012.9 |
| 20260507043819 | 43 | 245 | 0.0 | 0.0 | 0.00 | 0.00 | 0.00 | 94 | 1013.2 |
| 20260507043316 | 43 | 239 | 0.0 | 0.0 | 0.00 | 0.00 | 0.00 | 93 | 1013.2 |
| 20260507042812 | 43 | 243 | 0.0 | 0.0 | 0.00 | 0.00 | 0.00 | 92 | 1013.2 |
| 20260507042308 | 43 | 241 | 0.0 | 0.0 | 0.00 | 0.00 | 0.00 | 91 | 1012.9 |
| 20260507041805 | 43 | 239 | 0.0 | 0.0 | 0.00 | 0.00 | 0.00 | 90 | 1012.9 |
| 20260507041302 | 43 | 239 | 0.0 | 0.0 | 0.00 | 0.00 | 0.00 | 90 | 1012.9 |
| 20260507040759 | 44 | 234 | 0.0 | 0.0 | 0.00 | 0.00 | 0.00 | 89 | 1012.9 |
| 20260507040255 | 44 | 249 | 0.9 | 0.9 | 0.00 | 0.00 | 0.00 | 87 | 1013.2 |
| 20260507035751 | 44 | 295 | 0.9 | 1.7 | 0.00 | 0.90 | 0.90 | 88 | 1013.2 |
| 20260507035246 | 44 | 296 | 0.9 | 1.7 | 0.00 | 0.90 | 0.90 | 89 | 1012.5 |
| 20260507034744 | 44 | 278 | 0.9 | 1.7 | 0.00 | 0.90 | 0.90 | 89 | 1012.9 |
| 20260507034241 | 44 | 247 | 0.0 | 0.0 | 0.00 | 0.90 | 0.90 | 89 | 1012.9 |
| 20260507033740 | 44 | 245 | 0.9 | 0.9 | 0.00 | 0.90 | 0.90 | 89 | 1012.5 |
| 20260507033237 | 44 | 244 | 0.9 | 1.7 | 0.00 | 0.90 | 0.90 | 89 | 1012.5 |
| 20260507032734 | 44 | 241 | 0.0 | 0.9 | 0.00 | 0.90 | 0.90 | 89 | 1012.5 |
| 20260507032230 | 44 | 252 | 0.0 | 0.9 | 0.00 | 0.90 | 0.90 | 89 | 1012.5 |
| 20260507031726 | 44 | 287 | 0.9 | 0.9 | 0.00 | 0.90 | 0.90 | 89 | 1012.1 |
| 20260507031223 | 44 | 251 | 0.0 | 0.0 | 0.00 | 0.90 | 0.90 | 89 | 1012.1 |
| 20260507030720 | 44 | 252 | 0.0 | 0.9 | 0.00 | 0.90 | 0.90 | 88 | 1012.5 |
| 20260507030218 | 44 | 248 | 0.0 | 0.0 | 0.00 | 0.90 | 0.90 | 88 | 1012.5 |
| 20260507025715 | 44 | 246 | 0.9 | 0.9 | 0.00 | 0.90 | 0.90 | 87 | 1012.1 |
| 20260507025212 | 44 | 257 | 0.9 | 0.9 | 0.00 | 0.90 | 0.90 | 87 | 1012.1 |
| 20260507024710 | 44 | 279 | 0.0 | 0.9 | 0.00 | 0.90 | 0.90 | 88 | 1012.1 |
| 20260507024207 | 44 | 247 | 0.0 | 0.9 | 0.00 | 0.90 | 0.90 | 88 | 1012.5 |
| 20260507023702 | 45 | 259 | 0.0 | 0.9 | 0.00 | 0.90 | 0.90 | 89 | 1012.5 |
| 20260507023159 | 45 | 275 | 0.0 | 0.9 | 0.00 | 0.90 | 0.90 | 88 | 1012.5 |
| 20260507022656 | 45 | 242 | 0.0 | 0.0 | 0.00 | 0.90 | 0.90 | 88 | 1012.1 |
| 20260507022152 | 45 | 247 | 0.9 | 0.9 | 0.00 | 0.90 | 0.90 | 87 | 1012.5 |
| 20260507021649 | 45 | 256 | 0.0 | 0.9 | 0.00 | 0.90 | 0.90 | 87 | 1012.1 |
| 20260507021144 | 45 | 243 | 0.0 | 0.0 | 0.00 | 0.90 | 0.90 | 88 | 1012.1 |
| 20260507020643 | 45 | 235 | 0.0 | 0.0 | 0.00 | 0.90 | 0.90 | 89 | 1012.1 |
| 20260507020138 | 45 | 265 | 0.0 | 0.9 | 0.00 | 0.90 | 0.90 | 89 | 1012.1 |
| 20260507015637 | 45 | 245 | 0.0 | 0.0 | 0.00 | 0.90 | 0.90 | 89 | 1012.5 |
| 20260507015134 | 45 | 239 | 0.0 | 0.0 | 0.00 | 0.90 | 0.90 | 88 | 1012.5 |
| 20260507014630 | 46 | 254 | 0.0 | 0.9 | 0.00 | 0.90 | 0.90 | 88 | 1012.1 |
| 20260507014126 | 46 | 238 | 0.9 | 0.9 | 0.00 | 0.90 | 0.90 | 88 | 1012.5 |
| 20260507013623 | 46 | 234 | 0.0 | 0.0 | 0.00 | 0.90 | 0.90 | 87 | 1012.5 |
| 20260507013120 | 46 | 242 | 0.0 | 0.9 | 0.00 | 0.90 | 0.90 | 85 | 1012.1 |
| 20260507012618 | 46 | 218 | 0.9 | 1.7 | 0.00 | 0.90 | 0.90 | 85 | 1012.5 |
| 20260507012113 | 46 | 248 | 2.6 | 2.6 | 0.00 | 0.90 | 0.90 | 84 | 1012.5 |
| 20260507011612 | 46 | 309 | 1.7 | 1.7 | 0.00 | 0.90 | 0.90 | 85 | 1012.5 |
| 20260507011107 | 46 | 254 | 0.9 | 0.9 | 0.00 | 0.90 | 0.90 | 88 | 1012.5 |
| 20260507010602 | 46 | 246 | 1.7 | 2.6 | 0.00 | 0.90 | 0.90 | 89 | 1012.5 |
| 20260507010058 | 47 | 259 | 0.9 | 0.9 | 0.00 | 0.90 | 0.90 | 90 | 1012.1 |
| 20260507005556 | 47 | 277 | 0.9 | 1.7 | 0.00 | 0.90 | 0.90 | 90 | 1012.1 |
| 20260507005052 | 47 | 236 | 0.0 | 0.9 | 0.00 | 0.90 | 0.90 | 91 | 1012.5 |
| 20260507004549 | 47 | 247 | 0.0 | 0.0 | 0.00 | 0.90 | 0.90 | 91 | 1011.8 |
| 20260507004047 | 47 | 244 | 0.0 | 0.0 | 0.00 | 0.90 | 0.90 | 91 | 1011.8 |
| 20260507003542 | 47 | 325 | 1.7 | 1.7 | 0.00 | 0.90 | 0.90 | 92 | 1011.8 |
| 20260507003038 | 47 | 351 | 2.6 | 2.6 | 0.00 | 0.90 | 0.90 | 93 | 1011.8 |
| 20260507002535 | 47 | 342 | 3.5 | 4.3 | 0.00 | 0.90 | 0.90 | 96 | 1011.8 |
| 20260507002030 | 47 | 262 | 0.9 | 1.7 | 0.00 | 0.90 | 0.90 | 98 | 1011.8 |
| 20260507001527 | 47 | 267 | 0.0 | 0.9 | 0.00 | 0.90 | 0.90 | 99 | 1011.4 |
| 20260507001025 | 47 | 241 | 0.9 | 0.9 | 0.00 | 0.90 | 0.90 | 99 | 1011.1 |
| 20260507000520 | 47 | 247 | 0.0 | 0.0 | 0.00 | 0.90 | 0.90 | 99 | 1011.1 |
| 20260507000016 | 47 | 261 | 0.9 | 0.9 | 0.00 | 0.90 | 0.90 | 98 | 1011.1 |
| 20260506235514 | 47 | 231 | 0.0 | 0.0 | 0.00 | 0.90 | 0.90 | 98 | 1011.1 |
| 20260506235009 | 47 | 240 | 0.0 | 0.0 | 0.00 | 0.90 | 0.90 | 98 | 1010.7 |
| 20260506234507 | 48 | 231 | 0.0 | 0.0 | 0.00 | 0.90 | 0.90 | 98 | 1011.1 |
| 20260506234004 | 47 | 229 | 0.0 | 0.0 | 0.00 | 0.90 | 0.90 | 97 | 1010.7 |
| 20260506233501 | 48 | 235 | 0.0 | 0.0 | 0.00 | 0.90 | 0.90 | 97 | 1011.1 |
| 20260506232957 | 48 | 238 | 0.9 | 1.7 | 0.00 | 0.90 | 0.90 | 97 | 1010.7 |
| 20260506232454 | 48 | 231 | 0.0 | 0.0 | 0.00 | 0.90 | 0.90 | 97 | 1010.7 |
| 20260506231950 | 48 | 230 | 0.0 | 0.9 | 0.00 | 0.90 | 0.90 | 97 | 1010.4 |
| 20260506231447 | 47 | 234 | 0.0 | 0.9 | 0.00 | 0.90 | 0.90 | 97 | 1010.7 |
| 20260506230944 | 48 | 220 | 0.0 | 0.9 | 0.00 | 0.90 | 0.90 | 97 | 1010.7 |
| 20260506230440 | 48 | 233 | 0.0 | 0.0 | 0.00 | 0.90 | 0.90 | 97 | 1010.7 |
| 20260506225937 | 48 | 240 | 0.9 | 0.9 | 0.00 | 0.90 | 0.90 | 96 | 1010.7 |
| 20260506225435 | 48 | 228 | 0.9 | 0.9 | 0.00 | 0.90 | 0.90 | 96 | 1011.1 |
| 20260506224931 | 48 | 232 | 0.0 | 0.9 | 0.00 | 0.90 | 0.90 | 96 | 1010.7 |
| 20260506224428 | 48 | 226 | 0.0 | 0.9 | 0.00 | 0.90 | 0.90 | 95 | 1010.7 |
| 20260506223925 | 48 | 229 | 0.0 | 0.9 | 0.00 | 0.90 | 0.90 | 95 | 1010.7 |
| 20260506223420 | 48 | 240 | 0.0 | 0.0 | 0.00 | 0.90 | 0.90 | 95 | 1010.4 |
| 20260506222918 | 48 | 239 | 0.0 | 0.0 | 0.00 | 0.90 | 0.90 | 95 | 1010.4 |
| 20260506222414 | 48 | 235 | 0.0 | 0.0 | 0.00 | 0.90 | 0.90 | 95 | 1010.4 |
| 20260506221911 | 48 | 220 | 0.9 | 0.9 | 0.00 | 0.90 | 0.90 | 94 | 1010.4 |
| 20260506221408 | 48 | 230 | 0.0 | 0.9 | 0.00 | 0.90 | 0.90 | 94 | 1010.4 |
| 20260506220906 | 48 | 241 | 0.0 | 0.0 | 0.00 | 0.90 | 0.90 | 94 | 1010.4 |
| 20260506220401 | 49 | 245 | 0.0 | 0.9 | 0.00 | 0.90 | 0.90 | 95 | 1010.1 |
| 20260506215858 | 48 | 248 | 0.0 | 0.9 | 0.00 | 0.90 | 0.90 | 96 | 1010.4 |
| 20260506215354 | 47 | 249 | 0.0 | 0.0 | 0.00 | 0.90 | 0.90 | 96 | 1010.4 |
| 20260506214850 | 48 | 256 | 0.0 | 0.9 | 0.00 | 0.90 | 0.90 | 97 | 1010.1 |
| 20260506214347 | 48 | 224 | 0.9 | 0.9 | 0.00 | 0.90 | 0.90 | 97 | 1010.1 |
| 20260506213845 | 47 | 242 | 0.0 | 0.0 | 0.00 | 0.90 | 0.90 | 99 | 1010.4 |
| 20260506213342 | 46 | 235 | 0.0 | 0.9 | 0.00 | 0.90 | 0.90 | 99 | 1010.1 |
| 20260506212839 | 46 | 242 | 0.0 | 0.0 | 0.00 | 0.90 | 0.90 | 99 | 1010.4 |
| 20260506212336 | 47 | 228 | 0.0 | 0.0 | 0.00 | 0.90 | 0.90 | 99 | 1010.4 |
| 20260506211830 | 46 | 247 | 0.0 | 0.9 | 0.00 | 0.90 | 0.90 | 99 | 1010.7 |
| 20260506211326 | 47 | 266 | 0.9 | 0.9 | 0.00 | 0.90 | 0.90 | 99 | 1010.4 |
| 20260506210824 | 47 | 249 | 0.0 | 0.0 | 0.00 | 0.90 | 0.90 | 99 | 1010.4 |
| 20260506210321 | 47 | 316 | 1.7 | 1.7 | 0.00 | 0.90 | 0.90 | 98 | 1010.1 |
| 20260506205818 | 47 | 283 | 2.6 | 2.6 | 0.00 | 0.90 | 0.90 | 98 | 1010.1 |
| 20260506205314 | 48 | 265 | 0.9 | 0.9 | 0.00 | 0.90 | 0.90 | 98 | 1010.4 |
| 20260506204810 | 47 | 245 | 0.9 | 1.7 | 0.00 | 0.90 | 0.90 | 99 | 1010.4 |
| 20260506204308 | 47 | 270 | 0.9 | 0.9 | 0.00 | 0.90 | 0.90 | 99 | 1010.4 |
| 20260506203806 | 47 | 243 | 0.9 | 0.9 | 0.00 | 0.90 | 0.90 | 99 | 1010.4 |
| 20260506203303 | 47 | 349 | 1.7 | 1.7 | 0.00 | 0.90 | 0.90 | 99 | 1010.4 |
| 20260506202800 | 47 | 242 | 0.9 | 0.9 | 0.00 | 0.90 | 0.90 | 99 | 1010.1 |
| 20260506202257 | 46 | 264 | 1.7 | 1.7 | 0.00 | 0.90 | 0.90 | 98 | 1010.1 |
| 20260506201753 | 47 | 336 | 1.7 | 1.7 | 0.00 | 0.90 | 0.90 | 98 | 1010.1 |
| 20260506201250 | 47 | 250 | 0.9 | 1.7 | 0.00 | 0.90 | 0.90 | 98 | 1010.1 |
| 20260506200747 | 47 | 272 | 2.6 | 2.6 | 0.00 | 0.90 | 0.90 | 98 | 1010.1 |
| 20260506200243 | 47 | 294 | 0.9 | 0.9 | 0.00 | 0.90 | 0.90 | 98 | 1010.1 |
| 20260506195740 | 47 | 255 | 0.9 | 0.9 | 0.00 | 0.90 | 0.90 | 97 | 1010.1 |
| 20260506195236 | 47 | 287 | 0.9 | 0.9 | 0.00 | 0.90 | 0.90 | 97 | 1010.1 |
| 20260506194734 | 47 | 249 | 0.0 | 0.9 | 0.00 | 0.90 | 0.90 | 96 | 1010.1 |
| 20260506194230 | 47 | 275 | 1.7 | 1.7 | 0.00 | 0.90 | 0.90 | 95 | 1009.7 |
| 20260506193728 | 48 | 243 | 0.9 | 0.9 | 0.00 | 0.90 | 0.90 | 95 | 1010.1 |
| 20260506193225 | 48 | 265 | 0.9 | 0.9 | 0.00 | 0.90 | 0.90 | 94 | 1010.1 |
| 20260506192721 | 48 | 250 | 0.0 | 0.9 | 0.00 | 0.90 | 0.90 | 93 | 1009.7 |
| 20260506192218 | 48 | 244 | 0.9 | 1.7 | 0.00 | 0.90 | 0.90 | 92 | 1010.1 |
| 20260506191715 | 47 | 278 | 0.0 | 0.9 | 0.00 | 0.90 | 0.90 | 92 | 1009.7 |
| 20260506191211 | 47 | 278 | 0.9 | 1.7 | 0.00 | 0.90 | 0.90 | 92 | 1009.7 |
| 20260506190708 | 47 | 272 | 2.6 | 4.3 | 0.00 | 0.90 | 0.90 | 92 | 1009.7 |
| 20260506190204 | 48 | 253 | 0.9 | 0.9 | 0.00 | 0.90 | 0.90 | 92 | 1009.7 |
| 20260506185702 | 48 | 262 | 0.9 | 1.7 | 0.00 | 0.90 | 0.90 | 93 | 1009.7 |
| 20260506185158 | 48 | 322 | 1.7 | 1.7 | 0.00 | 0.90 | 0.90 | 93 | 1009.7 |
| 20260506184650 | 47 | 348 | 4.3 | 6.1 | 0.00 | 0.90 | 0.90 | 94 | 1009.7 |
| 20260506184147 | 47 | 236 | 1.7 | 2.6 | 0.00 | 0.90 | 0.90 | 95 | 1009.4 |
| 20260506183644 | 47 | 271 | 1.7 | 1.7 | 0.00 | 0.90 | 0.90 | 94 | 1009.7 |
| 20260506183140 | 47 | 353 | 3.5 | 4.3 | 0.00 | 0.90 | 0.90 | 94 | 1009.4 |
| 20260506182637 | 47 | 287 | 0.9 | 0.9 | 0.00 | 0.90 | 0.90 | 95 | 1009.4 |
| 20260506182134 | 47 | 244 | 0.0 | 0.0 | 0.00 | 0.90 | 0.90 | 95 | 1009.7 |
| 20260506181632 | 47 | 326 | 1.7 | 1.7 | 0.00 | 0.90 | 0.90 | 95 | 1009.4 |
| 20260506181129 | 47 | 292 | 1.7 | 1.7 | 0.00 | 0.90 | 0.90 | 95 | 1009.4 |
| 20260506180626 | 47 | 356 | 4.3 | 6.1 | 0.00 | 0.90 | 0.90 | 95 | 1009.7 |
| 20260506180122 | 47 | 328 | 2.6 | 2.6 | 0.00 | 0.90 | 0.90 | 94 | 1009.4 |
| 20260506175619 | 47 | 277 | 0.9 | 1.7 | 0.00 | 0.90 | 0.90 | 95 | 1009.4 |
| 20260506175114 | 47 | 320 | 2.6 | 2.6 | 0.00 | 0.90 | 0.90 | 95 | 1009.4 |
| 20260506174614 | 47 | 278 | 1.7 | 1.7 | 0.00 | 0.90 | 0.90 | 95 | 1009.4 |
| 20260506174110 | 47 | 323 | 3.5 | 4.3 | 0.00 | 0.90 | 0.90 | 95 | 1009.4 |
| 20260506173608 | 47 | 334 | 0.9 | 1.7 | 0.00 | 0.90 | 0.90 | 96 | 1009.4 |
| 20260506173104 | 47 | 248 | 0.9 | 0.9 | 0.00 | 0.90 | 0.90 | 96 | 1009.4 |
| 20260506172602 | 47 | 282 | 0.9 | 0.9 | 0.00 | 0.90 | 0.90 | 96 | 1009.0 |
| 20260506172057 | 47 | 311 | 0.9 | 0.9 | 0.00 | 0.90 | 0.90 | 97 | 1008.6 |
| 20260506171555 | 47 | 279 | 0.9 | 1.7 | 0.00 | 0.90 | 0.90 | 99 | 1009.0 |
| 20260506171053 | 47 | 238 | 0.0 | 0.9 | 0.00 | 0.90 | 0.90 | 99 | 1009.4 |
| 20260506170550 | 46 | 261 | 0.9 | 0.9 | 0.00 | 0.90 | 0.90 | 99 | 1009.0 |
| 20260506170047 | 47 | 285 | 0.0 | 0.9 | 0.00 | 0.90 | 0.90 | 99 | 1008.6 |
| 20260506165546 | 47 | 294 | 1.7 | 1.7 | 0.00 | 0.90 | 0.90 | 99 | 1008.6 |
| 20260506165041 | 46 | 244 | 1.7 | 2.6 | 0.00 | 0.90 | 0.90 | 99 | 1008.6 |
| 20260506164538 | 46 | 284 | 1.7 | 1.7 | 0.00 | 0.90 | 0.90 | 99 | 1008.6 |
| 20260506164036 | 46 | 310 | 0.9 | 0.9 | 0.00 | 0.90 | 0.90 | 99 | 1008.6 |
| 20260506163532 | 46 | 246 | 1.7 | 1.7 | 0.00 | 0.90 | 0.90 | 99 | 1008.6 |
| 20260506163027 | 46 | 336 | 2.6 | 2.6 | 0.00 | 0.90 | 0.90 | 99 | 1008.6 |
| 20260506162524 | 47 | 285 | 2.6 | 2.6 | 0.00 | 0.90 | 0.90 | 99 | 1008.6 |
| 20260506162021 | 47 | 276 | 0.0 | 0.9 | 0.00 | 0.90 | 0.90 | 99 | 1008.6 |
| 20260506161518 | 47 | 246 | 0.0 | 0.0 | 0.00 | 0.90 | 0.90 | 99 | 1008.3 |
| 20260506161010 | 46 | 316 | 2.6 | 2.6 | 0.00 | 0.90 | 0.90 | 99 | 1008.3 |
| 20260506160508 | 46 | 334 | 3.5 | 4.3 | 0.07 | 0.90 | 0.90 | 99 | 1008.3 |
| 20260506160005 | 46 | 267 | 0.0 | 0.9 | 0.07 | 0.90 | 0.90 | 99 | 1008.3 |
| 20260506155502 | 46 | 252 | 1.7 | 1.7 | 0.00 | 0.89 | 0.89 | 99 | 1008.6 |
| 20260506153634 | 45 | 252 | 0.0 | 0.9 | 0.05 | 0.89 | 0.89 | 99 | 1008.6 |
| 20260506153131 | 45 | 242 | 0.9 | 0.9 | 0.05 | 0.89 | 0.89 | 99 | 1008.6 |
| 20260506152628 | 45 | 257 | 0.9 | 1.7 | 0.07 | 0.88 | 0.88 | 99 | 1008.6 |
| 20260506152126 | 45 | 266 | 0.0 | 0.0 | 0.12 | 0.88 | 0.88 | 99 | 1009.0 |
| 20260506151624 | 44 | 305 | 0.9 | 1.7 | 0.12 | 0.87 | 0.87 | 99 | 1008.6 |
| 20260506151121 | 44 | 275 | 0.0 | 0.0 | 0.12 | 0.86 | 0.86 | 99 | 1009.0 |
| 20260506150618 | 45 | 245 | 0.9 | 0.9 | 0.05 | 0.85 | 0.85 | 99 | 1009.0 |
| 20260506150115 | 44 | 252 | 0.9 | 0.9 | 0.07 | 0.84 | 0.84 | 99 | 1008.6 |
| 20260506145612 | 44 | 252 | 0.9 | 0.9 | 0.07 | 0.84 | 0.84 | 99 | 1008.3 |
| 20260506145108 | 44 | 268 | 0.9 | 1.7 | 0.07 | 0.83 | 0.83 | 99 | 1008.6 |
| 20260506144605 | 44 | 322 | 2.6 | 2.6 | 0.07 | 0.83 | 0.83 | 99 | 1008.6 |
| 20260506144102 | 44 | 268 | 0.9 | 1.7 | 0.00 | 0.82 | 0.82 | 99 | 1008.3 |
| 20260506143600 | 44 | 255 | 0.9 | 0.9 | 0.05 | 0.82 | 0.82 | 99 | 1008.3 |
| 20260506143058 | 44 | 244 | 0.9 | 0.9 | 0.05 | 0.82 | 0.82 | 99 | 1008.3 |
| 20260506142556 | 44 | 259 | 0.9 | 1.7 | 0.00 | 0.81 | 0.81 | 99 | 1007.9 |
| 20260506142054 | 44 | 354 | 1.7 | 2.6 | 0.00 | 0.81 | 0.81 | 99 | 1007.9 |
| 20260506141551 | 44 | 244 | 0.0 | 0.0 | 0.07 | 0.81 | 0.81 | 99 | 1007.9 |
| 20260506141049 | 44 | 258 | 0.0 | 0.0 | 0.07 | 0.81 | 0.81 | 99 | 1007.9 |
| 20260506140547 | 44 | 271 | 0.9 | 0.9 | 0.00 | 0.80 | 0.80 | 99 | 1007.6 |
| 20260506140044 | 44 | 245 | 0.9 | 1.7 | 0.05 | 0.80 | 0.80 | 99 | 1007.9 |
| 20260506135541 | 44 | 266 | 0.9 | 0.9 | 0.05 | 0.80 | 0.80 | 99 | 1007.9 |
| 20260506135037 | 44 | 265 | 0.0 | 0.0 | 0.00 | 0.79 | 0.79 | 99 | 1007.9 |
| 20260506134533 | 44 | 244 | 0.0 | 0.0 | 0.00 | 0.79 | 0.79 | 99 | 1007.9 |
| 20260506134029 | 44 | 279 | 0.9 | 0.9 | 0.00 | 0.79 | 0.79 | 99 | 1007.9 |
| 20260506133527 | 44 | 248 | 0.0 | 0.0 | 0.07 | 0.79 | 0.79 | 99 | 1007.9 |
| 20260506133024 | 45 | 311 | 2.6 | 2.6 | 0.12 | 0.79 | 0.79 | 99 | 1008.3 |
| 20260506132521 | 44 | 268 | 1.7 | 1.7 | 0.05 | 0.78 | 0.78 | 99 | 1008.3 |
| 20260506132018 | 44 | 243 | 0.9 | 0.9 | 0.00 | 0.77 | 0.77 | 99 | 1007.9 |
| 20260506131515 | 45 | 251 | 0.9 | 1.7 | 0.00 | 0.77 | 0.77 | 99 | 1007.9 |
| 20260506131011 | 45 | 247 | 0.9 | 0.9 | 0.00 | 0.77 | 0.77 | 99 | 1007.6 |
| 20260506130508 | 45 | 251 | 1.7 | 1.7 | 0.00 | 0.77 | 0.77 | 99 | 1007.6 |
| 20260506130006 | 44 | 297 | 2.6 | 2.6 | 0.00 | 0.77 | 0.77 | 99 | 1007.6 |
| 20260506125504 | 45 | 244 | 0.9 | 0.9 | 0.07 | 0.77 | 0.77 | 99 | 1007.6 |
| 20260506125001 | 45 | 257 | 0.0 | 0.0 | 0.07 | 0.77 | 0.77 | 99 | 1007.6 |
| 20260506124459 | 45 | 300 | 0.9 | 1.7 | 0.05 | 0.76 | 0.76 | 99 | 1007.6 |
| 20260506123957 | 45 | 297 | 0.0 | 0.9 | 0.12 | 0.76 | 0.76 | 99 | 1007.6 |
| 20260506123454 | 45 | 314 | 2.6 | 2.6 | 0.07 | 0.75 | 0.75 | 99 | 1007.9 |
| 20260506122952 | 45 | 329 | 1.7 | 2.6 | 0.05 | 0.74 | 0.74 | 99 | 1007.9 |
| 20260506122449 | 45 | 251 | 0.0 | 0.0 | 0.12 | 0.73 | 0.73 | 99 | 1007.9 |
| 20260506121947 | 45 | 345 | 2.6 | 2.6 | 0.19 | 0.73 | 0.73 | 99 | 1007.9 |
| 20260506121444 | 46 | 302 | 1.7 | 1.7 | 0.14 | 0.71 | 0.71 | 99 | 1007.9 |
| 20260506120940 | 45 | 238 | 0.0 | 0.0 | 0.12 | 0.70 | 0.70 | 99 | 1007.9 |
| 20260506120438 | 45 | 272 | 0.9 | 1.7 | 0.12 | 0.69 | 0.69 | 99 | 1007.9 |
| 20260506115935 | 46 | 225 | 1.7 | 1.7 | 0.12 | 0.68 | 0.68 | 99 | 1007.9 |
| 20260506115433 | 46 | 237 | 0.9 | 0.9 | 0.12 | 0.67 | 0.67 | 99 | 1007.9 |
| 20260506114931 | 46 | 318 | 1.7 | 1.7 | 0.12 | 0.66 | 0.66 | 99 | 1007.6 |
| 20260506114428 | 46 | 243 | 0.0 | 0.9 | 0.05 | 0.65 | 0.65 | 99 | 1007.3 |
| 20260506113927 | 46 | 331 | 1.7 | 1.7 | 0.12 | 0.64 | 0.64 | 99 | 1007.3 |
| 20260506113424 | 47 | 332 | 2.6 | 4.3 | 0.12 | 0.64 | 0.64 | 99 | 1006.9 |
| 20260506112920 | 47 | 332 | 0.9 | 1.7 | 0.07 | 0.62 | 0.62 | 99 | 1007.3 |
| 20260506112419 | 47 | 249 | 0.0 | 0.0 | 0.19 | 0.62 | 0.62 | 99 | 1006.9 |
| 20260506111915 | 47 | 295 | 0.0 | 0.0 | 0.17 | 0.61 | 0.61 | 99 | 1007.3 |
| 20260506111414 | 47 | 248 | 0.0 | 0.0 | 0.12 | 0.59 | 0.59 | 99 | 1007.3 |
| 20260506110910 | 47 | 321 | 2.6 | 2.6 | 0.07 | 0.58 | 0.58 | 99 | 1007.3 |
| 20260506110408 | 47 | 251 | 1.7 | 1.7 | 0.07 | 0.57 | 0.57 | 99 | 1006.6 |
| 20260506105904 | 47 | 261 | 1.7 | 1.7 | 0.19 | 0.57 | 0.57 | 99 | 1006.6 |
| 20260506105401 | 47 | 246 | 0.0 | 0.9 | 0.24 | 0.56 | 0.56 | 99 | 1006.6 |
| 20260506104858 | 48 | 267 | 0.0 | 0.9 | 0.24 | 0.54 | 0.54 | 99 | 1006.6 |
| 20260506104356 | 48 | 344 | 4.3 | 5.2 | 0.17 | 0.52 | 0.52 | 99 | 1006.9 |
| 20260506103853 | 48 | 253 | 0.9 | 0.9 | 0.17 | 0.50 | 0.50 | 99 | 1006.9 |
| 20260506103351 | 48 | 307 | 0.9 | 1.7 | 0.26 | 0.49 | 0.49 | 99 | 1006.6 |
| 20260506102848 | 48 | 245 | 0.0 | 0.0 | 0.26 | 0.47 | 0.47 | 99 | 1006.6 |
| 20260506102346 | 48 | 259 | 0.0 | 0.0 | 0.17 | 0.45 | 0.45 | 99 | 1006.6 |
| 20260506101843 | 48 | 295 | 1.7 | 1.7 | 0.17 | 0.43 | 0.43 | 99 | 1006.6 |
| 20260506101339 | 48 | 247 | 0.0 | 0.9 | 0.19 | 0.42 | 0.42 | 99 | 1006.6 |
| 20260506100837 | 48 | 263 | 0.0 | 0.9 | 0.12 | 0.40 | 0.40 | 99 | 1006.6 |
| 20260506100335 | 48 | 252 | 0.0 | 0.9 | 0.12 | 0.39 | 0.39 | 99 | 1006.6 |
| 20260506095833 | 48 | 250 | 0.9 | 0.9 | 0.12 | 0.38 | 0.38 | 99 | 1006.6 |
| 20260506095330 | 48 | 244 | 0.0 | 0.9 | 0.05 | 0.37 | 0.37 | 99 | 1006.6 |
| 20260506094827 | 48 | 241 | 0.0 | 0.0 | 0.07 | 0.36 | 0.36 | 99 | 1006.6 |
| 20260506094326 | 48 | 247 | 0.9 | 0.9 | 0.12 | 0.36 | 0.36 | 99 | 1006.6 |
| 20260506093823 | 48 | 259 | 0.9 | 0.9 | 0.19 | 0.35 | 0.35 | 99 | 1006.1 |
| 20260506093320 | 48 | 18 | 0.9 | 0.9 | 0.14 | 0.34 | 0.34 | 99 | 1006.1 |
| 20260506092818 | 48 | 252 | 0.9 | 0.9 | 0.12 | 0.32 | 0.32 | 99 | 1006.6 |
| 20260506092316 | 48 | 267 | 0.9 | 0.9 | 0.24 | 0.32 | 0.32 | 99 | 1006.6 |